TimeEST,TemperatureF,Dew PointF,Humidity,Sea Level PressureIn,VisibilityMPH,Wind Direction,Wind SpeedMPH,Gust SpeedMPH,PrecipitationIn,Events,Conditions,WindDirDegrees,DateUTC
12:53 AM,32.0,19.9,61,30.03,10.0,NW,8.1,-,N/A,,Clear,320,2013-02-25 05:53:00
1:53 AM,30.9,19.9,64,30.04,10.0,Variable,3.5,-,N/A,,Clear,0,2013-02-25 06:53:00
2:53 AM,30.0,21.0,69,30.05,10.0,WNW,3.5,-,N/A,,Clear,300,2013-02-25 07:53:00
3:53 AM,30.0,21.0,69,30.07,10.0,West,3.5,-,N/A,,Clear,280,2013-02-25 08:53:00
4:53 AM,30.0,21.9,72,30.08,10.0,Calm,Calm,-,N/A,,Clear,0,2013-02-25 09:53:00
5:53 AM,27.0,21.9,81,30.09,10.0,Calm,Calm,-,N/A,,Clear,0,2013-02-25 10:53:00
6:53 AM,28.0,23.0,81,30.11,10.0,Calm,Calm,-,N/A,,Clear,0,2013-02-25 11:53:00
7:53 AM,34.0,25.0,70,30.14,10.0,Calm,Calm,-,N/A,,Clear,0,2013-02-25 12:53:00
8:53 AM,37.9,25.0,60,30.14,10.0,NNW,8.1,-,N/A,,Clear,330,2013-02-25 13:53:00
9:53 AM,39.9,25.0,55,30.16,10.0,Variable,5.8,17.3,N/A,,Scattered Clouds,0,2013-02-25 14:53:00
10:53 AM,41.0,24.1,51,30.16,10.0,North,6.9,-,N/A,,Overcast,10,2013-02-25 15:53:00
11:53 AM,43.0,24.1,47,30.16,10.0,NNW,6.9,-,N/A,,Overcast,340,2013-02-25 16:53:00
12:53 PM,42.1,23.0,47,30.17,10.0,NW,8.1,-,N/A,,Overcast,310,2013-02-25 17:53:00
1:53 PM,43.0,24.1,47,30.16,10.0,NW,5.8,-,N/A,,Overcast,320,2013-02-25 18:53:00
2:53 PM,42.1,24.1,49,30.18,10.0,NNW,6.9,-,N/A,,Overcast,330,2013-02-25 19:53:00
3:53 PM,42.1,25.0,51,30.19,10.0,NNW,3.5,-,N/A,,Overcast,330,2013-02-25 20:53:00
4:53 PM,41.0,25.0,53,30.18,10.0,NNW,4.6,-,N/A,,Overcast,330,2013-02-25 21:53:00
5:53 PM,41.0,25.0,53,30.21,10.0,Calm,Calm,-,N/A,,Overcast,0,2013-02-25 22:53:00
6:53 PM,41.0,25.0,53,30.22,10.0,Calm,Calm,-,N/A,,Overcast,0,2013-02-25 23:53:00
7:53 PM,39.9,26.1,58,30.24,10.0,Calm,Calm,-,N/A,,Overcast,0,2013-02-26 00:53:00
8:53 PM,37.9,27.0,65,30.25,10.0,Calm,Calm,-,N/A,,Overcast,0,2013-02-26 01:53:00
9:53 PM,37.9,27.0,65,30.26,10.0,Calm,Calm,-,N/A,,Overcast,0,2013-02-26 02:53:00
10:53 PM,37.9,27.0,65,30.25,10.0,Calm,Calm,-,N/A,,Overcast,0,2013-02-26 03:53:00
11:53 PM,34.0,26.1,73,30.24,10.0,Calm,Calm,-,N/A,,Clear,0,2013-02-26 04:53:00